FW8325 Weather Reports


Display with metric or nautical units.
time (UTC)temp
F
wind
direction
speed
MPH
gust
MPH
rain 1hr
in
rain 24hr
in
rain mn
in
humidity
%
barometer
mb
20260507141620 51 194 0.0 0.0 0.00 0.06 0.00 52 1016.8
20260507140621 50 227 0.0 0.0 0.00 0.06 0.00 52 1016.9
20260507135623 49 227 0.0 3.0 0.00 0.06 0.00 53 1016.9
20260507134622 48 157 0.0 4.0 0.00 0.06 0.00 58 1016.5
20260507133620 47 168 0.0 3.0 0.00 0.06 0.00 67 1016.3
20260507132618 46 150 0.0 5.0 0.00 0.06 0.00 68 1016.3
20260507131616 46 136 0.0 5.0 0.00 0.06 0.00 68 1016.1
20260507130619 46 165 0.0 0.0 0.00 0.06 0.00 65 1016.0
20260507125616 46 238 0.0 0.0 0.00 0.06 0.00 61 1016.1
20260507124616 46 239 0.0 0.0 0.00 0.06 0.00 59 1016.2
20260507123633 47 254 0.0 0.0 0.00 0.06 0.00 59 1016.6
20260507122629 48 253 0.0 1.0 0.00 0.06 0.00 60 1016.5
20260507121632 50 306 0.0 1.0 0.00 0.06 0.00 50 1016.7
20260507120625 51 132 0.0 0.0 0.00 0.06 0.00 49 1016.9
20260507115626 50 183 0.0 7.0 0.00 0.06 0.00 48 1016.5
20260507114625 50 132 1.0 7.0 0.00 0.06 0.00 48 1016.4
20260507113624 50 193 0.0 0.0 0.00 0.06 0.00 44 1016.4
20260507112625 51 234 1.0 8.0 0.00 0.06 0.00 43 1016.3
20260507111624 50 229 0.0 3.0 0.00 0.06 0.00 46 1016.1
20260507110623 51 234 2.0 10.0 0.00 0.06 0.00 45 1016.4
20260507105621 51 259 1.0 7.0 0.00 0.06 0.00 40 1016.7
20260507104619 50 200 0.0 8.0 0.00 0.06 0.00 44 1016.1
20260507103624 49 222 2.0 8.0 0.00 0.06 0.00 47 1016.2
20260507102622 49 224 0.0 4.0 0.00 0.06 0.00 49 1016.7
20260507101619 49 186 0.0 5.0 0.00 0.06 0.00 45 1016.5
20260507100617 49 194 1.0 10.0 0.00 0.06 0.00 51 1016.4
20260507095655 49 202 2.0 9.0 0.00 0.06 0.00 50 1016.3
20260507094617 49 199 3.0 11.0 0.00 0.06 0.00 47 1016.5
20260507093655 49 212 2.0 9.0 0.00 0.06 0.00 47 1016.4
20260507092631 49 182 1.0 12.0 0.00 0.06 0.00 49 1016.7
20260507091628 49 198 1.0 5.0 0.00 0.06 0.00 52 1016.6
20260507090628 48 193 0.0 1.0 0.00 0.06 0.00 51 1016.6
20260507085634 48 205 0.0 1.0 0.00 0.07 0.00 51 1016.6
20260507084651 47 208 0.0 4.0 0.00 0.07 0.00 48 1016.5
20260507083630 47 203 2.0 13.0 0.00 0.07 0.00 54 1016.7
20260507082628 49 207 5.0 13.0 0.00 0.07 0.00 53 1016.7
20260507081626 49 209 4.0 18.0 0.00 0.07 0.00 51 1016.8
20260507080629 47 195 0.0 3.0 0.00 0.07 0.00 49 1016.8
20260507075629 48 215 0.0 0.0 0.00 0.08 0.00 46 1017.0
20260507074625 48 219 0.0 0.0 0.00 0.08 0.00 47 1017.2
20260507073645 50 175 0.0 7.0 0.00 0.08 0.00 49 1017.3
20260507072622 50 143 1.0 5.0 0.00 0.08 0.00 51 1017.4
20260507071622 49 140 1.0 7.0 0.00 0.08 0.00 51 1017.5
20260507070623 49 169 1.0 9.0 0.00 0.08 0.00 49 1017.6
20260507065624 49 149 0.0 3.0 0.00 0.09 0.00 52 1017.5
20260507064623 50 135 1.0 6.0 0.00 0.09 0.00 49 1017.5
20260507063643 48 144 0.0 0.0 0.00 0.09 0.00 55 1017.4
20260507062643 48 178 0.0 0.0 0.00 0.09 0.00 53 1017.4
20260507061620 48 203 0.0 0.0 0.00 0.09 0.00 50 1017.4
20260507060630 48 199 0.0 2.0 0.00 0.09 0.00 51 1017.5
20260507055628 49 180 0.0 4.0 0.00 0.09 0.09 54 1017.5
20260507054645 48 191 0.0 7.0 0.00 0.09 0.09 51 1017.5
20260507053623 49 171 1.0 8.0 0.00 0.09 0.09 53 1017.5
20260507052628 50 169 0.0 6.0 0.00 0.09 0.09 50 1017.6
20260507051626 51 145 1.0 7.0 0.00 0.09 0.09 50 1017.6
20260507050643 50 121 0.0 5.0 0.00 0.09 0.09 50 1017.7
20260507045621 49 166 1.0 8.0 0.00 0.09 0.09 55 1017.6
20260507044620 50 186 0.0 0.0 0.00 0.09 0.09 52 1017.9
20260507043621 51 140 0.0 2.0 0.00 0.09 0.09 47 1017.8
20260507042620 52 268 0.0 0.0 0.00 0.09 0.09 50 1017.8
20260507041620 52 150 1.0 7.0 0.00 0.09 0.09 42 1017.7
20260507040641 51 201 0.0 4.0 0.00 0.09 0.09 48 1017.7
20260507035616 51 223 3.0 15.0 0.00 0.09 0.09 45 1017.6
20260507034619 51 218 2.0 8.0 0.00 0.09 0.09 50 1017.6
20260507033619 53 213 2.0 8.0 0.00 0.09 0.09 51 1017.5
20260507032619 53 149 2.0 10.0 0.00 0.09 0.09 44 1017.2
20260507031619 53 136 1.0 9.0 0.00 0.09 0.09 50 1017.3
20260507030617 52 217 1.0 6.0 0.00 0.09 0.09 54 1017.2
20260507025618 52 196 0.0 2.0 0.00 0.09 0.09 52 1017.2
20260507024616 53 160 1.0 6.0 0.00 0.09 0.09 43 1017.1
20260507023615 54 188 0.0 2.0 0.00 0.09 0.09 48 1017.1
20260507022616 55 158 0.0 3.0 0.00 0.09 0.09 41 1017.0
20260507021654 55 193 0.0 0.0 0.00 0.09 0.09 42 1017.0
20260507020617 56 238 0.0 0.0 0.00 0.09 0.09 36 1016.8
20260507015655 57 277 0.0 0.0 0.00 0.09 0.09 34 1016.7
20260507014634 58 360 0.0 0.0 0.00 0.09 0.09 35 1016.7
20260507013633 58 31 0.0 3.0 0.00 0.09 0.09 34 1016.6
20260507012632 59 257 0.0 0.0 0.00 0.09 0.09 34 1016.6
20260507011653 58 245 0.0 1.0 0.00 0.09 0.09 35 1016.6
20260507010631 58 269 0.0 2.0 0.00 0.09 0.09 32 1016.5
20260507005631 58 267 0.0 3.0 0.00 0.09 0.09 35 1016.6
20260507004629 58 317 0.0 3.0 0.00 0.09 0.09 33 1016.8
20260507003630 58 244 0.0 8.0 0.00 0.09 0.09 31 1016.8
20260507002635 58 298 0.0 8.0 0.00 0.09 0.09 31 1016.9
20260507001634 58 270 1.0 8.0 0.00 0.09 0.09 32 1016.9
20260507000628 57 275 1.0 12.0 0.00 0.09 0.09 34 1016.9
20260506235648 57 323 1.0 9.0 0.00 0.09 0.09 33 1016.9
20260506234626 57 286 2.0 13.0 0.00 0.09 0.09 33 1016.8
20260506233628 57 263 2.0 9.0 0.00 0.09 0.09 33 1016.9
20260506232626 57 286 0.0 10.0 0.00 0.09 0.09 32 1016.9
20260506231624 57 302 2.0 9.0 0.00 0.09 0.09 32 1016.9
20260506230624 56 298 1.0 10.0 0.00 0.09 0.09 36 1017.0
20260506225624 55 290 2.0 8.0 0.00 0.09 0.09 39 1017.0
20260506224627 51 120 0.0 6.0 0.00 0.09 0.09 51 1017.2
20260506223625 50 108 1.0 7.0 0.00 0.09 0.09 49 1017.2
20260506222644 50 109 1.0 4.0 0.00 0.09 0.09 55 1017.3
20260506221620 49 114 1.0 6.0 0.00 0.09 0.09 56 1017.5
20260506220621 49 115 0.0 2.0 0.00 0.09 0.09 55 1017.5
20260506215639 47 124 0.0 0.0 0.00 0.09 0.09 57 1017.7
20260506214620 47 125 0.0 0.0 0.00 0.09 0.09 55 1018.0
20260506213620 46 128 0.0 0.0 0.00 0.09 0.09 53 1018.1
20260506212620 46 128 0.0 0.0 0.00 0.09 0.09 55 1018.0
20260506211618 46 123 0.0 4.0 0.00 0.09 0.09 52 1018.0
20260506210621 45 116 0.0 0.0 0.00 0.09 0.09 51 1018.2
20260506205619 45 129 0.0 1.0 0.00 0.09 0.09 48 1018.2
20260506204620 44 119 0.0 0.0 0.00 0.09 0.09 51 1018.3
20260506203621 44 119 0.0 0.0 0.00 0.09 0.09 47 1018.4
20260506202619 43 113 0.0 0.0 0.00 0.09 0.09 48 1018.4
20260506201623 43 112 0.0 0.0 0.00 0.09 0.09 47 1018.5
20260506200620 43 120 0.0 0.0 0.00 0.09 0.09 45 1018.6
20260506195639 43 99 0.0 0.0 0.00 0.09 0.09 43 1018.6
20260506194617 42 113 0.0 0.0 0.00 0.09 0.09 47 1018.6
20260506193636 42 104 0.0 0.0 0.00 0.09 0.09 49 1018.6
20260506192618 42 98 0.0 0.0 0.00 0.09 0.09 49 1018.6
20260506191616 41 94 0.0 0.0 0.00 0.09 0.09 53 1018.8
20260506190636 41 97 0.0 0.0 0.00 0.09 0.09 57 1018.9
20260506185615 41 99 0.0 0.0 0.00 0.09 0.09 57 1018.9
20260506184616 40 109 0.0 0.0 0.00 0.09 0.09 54 1019.0
20260506183636 40 110 0.0 0.0 0.00 0.09 0.09 58 1019.1
20260506182633 40 117 0.0 0.0 0.00 0.09 0.09 59 1019.2
20260506181650 39 123 0.0 0.0 0.00 0.09 0.09 58 1019.2
20260506180625 39 119 0.0 0.0 0.01 0.09 0.09 62 1019.2
20260506175628 39 120 0.0 0.0 0.02 0.09 0.09 62 1019.2
20260506174631 38 134 0.0 0.0 0.02 0.09 0.09 64 1019.2
20260506173629 38 120 0.0 0.0 0.02 0.09 0.09 64 1019.1
20260506172629 38 118 0.0 1.0 0.02 0.09 0.09 62 1019.2
20260506171627 38 119 0.0 0.0 0.02 0.09 0.09 68 1019.2
20260506170626 38 111 0.0 1.0 0.01 0.08 0.08 64 1019.2
20260506165629 38 115 0.0 0.0 0.00 0.08 0.07 67 1019.2
20260506164628 37 144 0.0 0.0 0.00 0.08 0.07 70 1019.1
20260506163629 37 133 0.0 3.0 0.00 0.08 0.07 68 1019.0
20260506162648 37 148 0.0 1.0 0.00 0.08 0.07 69 1019.0
20260506161626 36 142 0.0 1.0 0.00 0.08 0.07 71 1019.0
20260506160627 36 161 0.0 1.0 0.00 0.08 0.07 73 1018.9
20260506155625 36 175 0.0 1.0 0.00 0.22 0.07 72 1018.9
20260506154623 36 142 0.0 0.0 0.01 0.22 0.07 72 1018.9
20260506153622 35 131 0.0 0.0 0.01 0.22 0.07 74 1018.8
20260506152620 35 150 0.0 0.0 0.04 0.22 0.07 75 1018.8
20260506151625 35 184 0.0 1.0 0.04 0.22 0.07 77 1018.6
20260506150627 34 171 0.0 4.0 0.04 0.22 0.07 79 1018.6
20260506145646 34 173 0.0 4.0 0.04 0.28 0.07 80 1018.6
20260506144623 34 175 0.0 0.0 0.03 0.27 0.06 79 1018.5
20260506143641 34 177 0.0 0.0 0.03 0.27 0.06 79 1018.6
20260506142622 34 229 0.0 0.0 0.00 0.24 0.03 81 1018.4